Location: ????????
(48.4751°N, 37.6926°E)
Time: 13:34:35
(UTC+00:00)

COSMOS 2406 - Pass Details

Date: 20 January 2021
Orbit: 841 x 866 km, 71.0° (Epoch: 26 February)

Event Time Altitude Azimuth Distance (km) Brightness Sun altitude
Rises 17:26:39 0° 331° (NNW) 3,459 6.8 -32.3°
Reaches altitude 10° 17:29:07 10° 330° (NNW) 2,518 6.0 -32.7°
Enters shadow 17:32:55 43° 322° (NW) 1,208 4.2 -33.3°
